LEMUR 2 GREENBERG

导读

LEMUR 2 GREENBERG是美国Spire全球公司发射的一颗3U立方星,属于Lemur-2商业遥感卫星星座,NORAD编号42837,国际卫星标识符2017-042N。它于2017年7月14日发射入轨,运行在约550公里高度的太阳同步轨道,轨道周期约94.5分钟。主要承担无线电掩星探测、全球船舶跟踪任务,为气象监测等应用提供商业数据服务。

Basic Information
目录编号:
42837
目录名称:
LEMUR 2 GREENBERG
国际标识:
2017-042N
轨道中心:
EARTH
卫星名称:
LEMUR 2 GREENBERG
卫星全名:
--
卫星状态:
在轨 (已飞行3339 天)
发射日期:
2017-07-14 UTC
国别 :
美国 (US)
星等 :
--
Orbit Information
数据来源 国际轨道数据
星历时间: 2026-09-03T13:56:12+0800
1天前
查看轨道信息
半长轴: 6843.304km
偏心率: 0.0009717
轨道倾角: 97.386°
近地点辐角 86.834°
升交点赤经 66.667°
平近点角 273.402°
近地点: 458.517km
远地点: 471.817km
周期: 93.898分钟
每日圈数: 15.335716
Detailed Information
使用方式:
暂无
2D Orbit Map
3D Orbit Map
Orbit Altitude Analysis Chart
Orbit Inclination Analysis Chart
Orbit Comprehensive Analysis Chart
View Comprehensive Chart
Conjunction Data List
Event ID Objects TCA Miss Dist (km) Collision Risk Probability Collision Risk Index (CRI) Action
CDM_260904-132504-283706-345021
2026-09-04T
13:25:40+0000
0.972 km
远距离
1.881318E-5 中风险 0.6
CDM_260905-022004-283705-939421
2026-09-05T
02:20:45+0000
1.147 km
极远距离
1.260103E-5 中风险 0.57
CDM_260905-081504-283706-428021
2026-09-05T
08:15:45+0000
1.197 km
极远距离
1.068554E-5 中风险 0.56
CDM_260905-221804-283706-612621
2026-09-05T
22:18:27+0000
1.432 km
极远距离
7.66024E-6 低风险 0.53
CDM_260905-203904-283706-509521
2026-09-05T
20:39:45+0000
1.443 km
极远距离
7.582229E-6 低风险 0.53
CDM_260905-232404-283706-387321
2026-09-05T
23:24:58+0000
1.343 km
极远距离
6.983895E-6 低风险 0.52
CDM_260906-063104-283706-060421
2026-09-06T
06:31:33+0000
1.490 km
极远距离
6.320499E-6 低风险 0.51
CDM_260906-034904-283705-198521
2026-09-06T
03:49:56+0000
1.579 km
极远距离
5.373687E-6 低风险 0.5
CDM_260904-121604-283706-296621
2026-09-04T
12:16:47+0000
1.501 km
极远距离
4.5343E-6 低风险 0.48
CDM_260830-094504-283706-446522
2026-08-30T
09:45:03+0000
1.560 km
极远距离
4.30968E-6 低风险 0.48